Skip Page Navigation
NASA JPL Caltech
NASA Logo - Jet Propulsion Laboratory + View the NASA Portal
+ Center for Near-Earth Object Studies
JPL Home Earth Solar System Stars & Galaxies Technology
JPL Solar System Dynamics
BODIES ORBITS EPHEMERIDES TOOLS PHYSICAL DATA DISCOVERY FAQ SITE MAP

Significant website upgrade scheduled for September 27. More details available here.

JPL Small-Body Database Browser
Search: [ help ]  
79876 (1998 YO17)
Classification: Main-belt Asteroid          SPK-ID: 2079876
Ephemeris | Orbit Diagram | Orbital Elements | Mission Design | Physical Parameters | Discovery Circumstances ]

[ show orbit diagram ]
Orbital Elements at Epoch 2459396.5 (2021-Jul-01.0) TDB
Reference: JPL 26 (heliocentric ecliptic J2000)
 Element Value Uncertainty (1-sigma)   Units 
e .01025966012914228 3.4558e-08  
a 2.664962204680346 1.2231e-08 au
q 2.637620598203316 9.2812e-08 au
i 1.289613062049914 3.6466e-06 deg
node 288.7139509646913 0.0001731 deg
peri 198.5873899105844 0.000259 deg
M 54.70383195001367 0.00019167 deg
tp 2459155.037186563134
(2020-Nov-01.53718656)
0.00084627 TDB
period 1589.040652887021
4.35
1.0939e-05
2.995e-08
d
yr
n .2265517872975372 1.5596e-09 deg/d
Q 2.692303811157375 1.2356e-08 au
  Orbit Determination Parameters
   # obs. used (total)      750  
   data-arc span      8173 days (22.38 yr)  
   first obs. used      1998-12-22  
   last obs. used      2021-05-08  
   planetary ephem.      DE441  
   SB-pert. ephem.      SB441-N16  
   condition code      0  
   norm. resid. RMS      .56167  
   source      ORB  
   producer      Otto Matic  
   solution date      2021-Jul-08 23:09:47  

Additional Information
 Earth MOID = 1.6519 au 
 Jupiter MOID = 2.2812 au 
 T_jup = 3.383 
[ show covariance matrix ]

Ephemeris | Orbit Diagram | Orbital Elements | Mission Design | Physical Parameters | Discovery Circumstances ]

Physical Parameter Table
Parameter Symbol Value Units Sigma Reference Notes
absolute magnitude H 15.78   n/a MPCxxxxx  

79876 (1998 YO17)          Discovered 1998-Dec-22 by Spacewatch at Kitt Peak
Reference: 20040504/Numbers.arcLast Updated: 2004-07-16

Alternate Designations
 1998 YO17 = 2000 KD13 
Ephemeris | Orbit Diagram | Orbital Elements | Mission Design | Physical Parameters | Discovery Circumstances ]
ABOUT SSD CREDITS/AWARDS PRIVACY/COPYRIGHT GLOSSARY LINKS
FirstGov 2021-Sep-26 17:13 UT
(server date/time)  
NASA Home Page
Site Manager:   Ryan S. Park
Webmaster  Alan B. Chamberlin